TimeCDT,TemperatureF,Dew PointF,Humidity,Sea Level PressureIn,VisibilityMPH,Wind Direction,Wind SpeedMPH,Gust SpeedMPH,PrecipitationIn,Events,Conditions,WindDirDegrees,DateUTC
12:53 AM,34.0,25.0,70,29.78,10.0,West,11.5,17.3,N/A,,Scattered Clouds,280,2013-04-12 05:53:00
1:53 AM,34.0,26.1,73,29.79,10.0,West,12.7,18.4,N/A,,Mostly Cloudy,270,2013-04-12 06:53:00
2:53 AM,34.0,26.1,73,29.79,10.0,WNW,11.5,-,N/A,,Overcast,290,2013-04-12 07:53:00
3:53 AM,34.0,26.1,73,29.78,10.0,WNW,12.7,20.7,N/A,,Overcast,290,2013-04-12 08:53:00
4:53 AM,34.0,26.1,73,29.80,10.0,West,10.4,-,N/A,,Overcast,280,2013-04-12 09:53:00
5:53 AM,34.0,24.1,67,29.81,10.0,WNW,12.7,23.0,N/A,,Overcast,300,2013-04-12 10:53:00
6:49 AM,33.8,23.0,65,29.81,10.0,WNW,9.2,-,N/A,,Overcast,300,2013-04-12 11:49:00
6:53 AM,34.0,23.0,64,29.83,10.0,WNW,8.1,17.3,N/A,,Overcast,300,2013-04-12 11:53:00
7:23 AM,33.8,24.8,70,29.83,10.0,West,5.8,-,N/A,,Mostly Cloudy,270,2013-04-12 12:23:00
7:53 AM,34.0,26.1,73,29.86,10.0,West,12.7,-,N/A,,Mostly Cloudy,280,2013-04-12 12:53:00
8:21 AM,33.8,26.6,75,29.85,10.0,West,13.8,-,N/A,,Overcast,280,2013-04-12 13:21:00
8:53 AM,34.0,26.1,73,29.88,10.0,West,13.8,20.7,N/A,,Overcast,280,2013-04-12 13:53:00
9:53 AM,36.0,27.0,70,29.90,10.0,NW,15.0,-,N/A,,Overcast,310,2013-04-12 14:53:00
10:53 AM,39.0,28.0,65,29.92,10.0,WNW,16.1,21.9,N/A,,Mostly Cloudy,290,2013-04-12 15:53:00
11:53 AM,39.0,28.0,65,29.95,10.0,West,12.7,-,N/A,,Mostly Cloudy,280,2013-04-12 16:53:00
12:53 PM,41.0,28.0,60,29.95,10.0,WNW,15.0,-,N/A,,Mostly Cloudy,290,2013-04-12 17:53:00
1:53 PM,43.0,28.0,56,29.96,10.0,WNW,13.8,20.7,N/A,,Mostly Cloudy,290,2013-04-12 18:53:00
2:53 PM,48.0,30.0,50,29.95,10.0,West,13.8,21.9,N/A,,Mostly Cloudy,280,2013-04-12 19:53:00
3:53 PM,48.9,30.9,50,29.94,10.0,West,13.8,21.9,N/A,,Mostly Cloudy,280,2013-04-12 20:53:00
4:53 PM,51.1,30.9,46,29.94,10.0,WNW,12.7,18.4,N/A,,Mostly Cloudy,290,2013-04-12 21:53:00
5:53 PM,50.0,30.9,48,29.94,10.0,NW,11.5,-,N/A,,Mostly Cloudy,310,2013-04-12 22:53:00
6:53 PM,50.0,30.9,48,29.94,10.0,WNW,13.8,-,N/A,,Scattered Clouds,300,2013-04-12 23:53:00
7:53 PM,45.0,30.9,58,29.96,10.0,NW,6.9,-,N/A,,Scattered Clouds,320,2013-04-13 00:53:00
8:53 PM,42.1,30.0,62,29.99,10.0,NNW,6.9,-,N/A,,Scattered Clouds,330,2013-04-13 01:53:00
9:53 PM,42.1,28.9,60,30.00,10.0,Calm,Calm,-,N/A,,Partly Cloudy,0,2013-04-13 02:53:00
10:53 PM,42.1,28.9,60,30.02,10.0,WNW,3.5,-,N/A,,Partly Cloudy,290,2013-04-13 03:53:00
11:53 PM,39.9,30.0,68,30.04,10.0,NW,4.6,-,N/A,,Mostly Cloudy,310,2013-04-13 04:53:00